This is the latest recevied weather packets stored in our database for station/object KJ7BRE-1. If no packets are shown the sender has not sent any weather packets the latest 10 day(s).
| Time | Temp. | Humidity | Pressure | Rain* | Wind** | Luminosity | Snow |
|---|---|---|---|---|---|---|---|
| 1777709619 | 12.22° C | 73% | 1011.5 hPa | 0 mm | - | - | - |
| 1777709317 | 12.22° C | 73% | 1011.5 hPa | 0 mm | - | - | - |
| 1777709016 | 12.22° C | 73% | 1011.9 hPa | 0 mm | - | - | - |
| 1777708715 | 12.22° C | 73% | 1011.9 hPa | 0 mm | - | - | - |
| 1777708414 | 12.22° C | 72% | 1011.2 hPa | 0 mm | - | - | - |
| 1777708112 | 12.22° C | 73% | 1010.8 hPa | 0 mm | - | - | - |
| 1777707811 | 12.78° C | 72% | 1010.8 hPa | 0 mm | - | - | - |
| 1777707510 | 12.78° C | 72% | 1010.8 hPa | 0 mm | - | - | - |
| 1777707209 | 12.78° C | 72% | 1010.8 hPa | 0 mm | - | - | - |
| 1777706907 | 12.78° C | 72% | 1010.8 hPa | 0 mm | - | - | - |
| 1777706606 | 12.78° C | 72% | 1010.8 hPa | 0 mm | - | - | - |
| 1777706305 | 12.78° C | 72% | 1010.8 hPa | 0 mm | - | - | - |
| 1777706004 | 12.78° C | 74% | 1010.8 hPa | 0 mm | - | - | - |
| 1777705703 | 12.78° C | 72% | 1010.8 hPa | 0 mm | - | - | - |
| 1777705401 | 12.78° C | 72% | 1010.8 hPa | 0 mm | - | - | - |
| 1777705100 | 12.78° C | 72% | 1010.8 hPa | 0 mm | - | - | - |
| 1777704799 | 12.78° C | 71% | 1010.8 hPa | 0 mm | - | - | - |
| 1777704498 | 13.33° C | 71% | 1010.5 hPa | 0 mm | - | - | - |
| 1777704196 | 13.33° C | 71% | 1010.8 hPa | 0 mm | - | - | - |
| 1777703895 | 13.33° C | 71% | 1010.8 hPa | 0 mm | - | - | - |
| 1777703594 | 13.33° C | 71% | 1010.8 hPa | 0 mm | - | - | - |
| 1777703293 | 13.33° C | 71% | 1010.8 hPa | 0 mm | - | - | - |
| 1777702992 | 13.33° C | 71% | 1010.8 hPa | 0 mm | - | - | - |
| 1777702690 | 13.33° C | 73% | 1010.8 hPa | 0 mm | - | - | - |
| 1777702389 | 13.33° C | 70% | 1010.5 hPa | 0 mm | - | - | - |
* Rain latest hour (hover to see other rain measurements)
** Current wind speed in m/s (hover to see current wind gust speed)